UAE29U LSGG-OMDB

Flight info

Callsign UAE29U
Flight time N/A
Altitude 35000
Route MEDAM DCT NITAM DCT MOGBO DCT BAKRO DCT MEDAL DCT RAVAL DCT ELVIN DCT RIFFI DCT PNZ DCT BELIX DCT SALUN N705 BOPIX N710 TAKRI M720 FYM M872 SIKNO/N0488F370 M872 BDB Y214 RAPMA DCT KUVSO DCT KATIT DCT PEKEM M628 RIGIL G783 ELUDA/N0500F350 G783 ASPED Q308 KIPOK Q568 IMPED
Aircraft B77W/H-SDE1E2E3FGHIJ2J3J4J5M1RWXY/LB1D1

Departure

Time 2026-05-07 14:40
Airport Geneva International Airport (LSGG)

Arrival

Time N/A
Airport Dubai International Airport (OMDB)
Time Latitude Longitude Altitude Speed Heading
2026-05-07 14:06 46.23384 6.11036 1406 ft 0 kts 135°
2026-05-07 14:23 46.23389 6.11028 1408 ft 4 kts 135°
2026-05-07 14:23 46.23408 6.11001 1408 ft 4 kts 135°
2026-05-07 14:24 46.23425 6.10976 1408 ft 4 kts 113°
2026-05-07 14:24 46.23424 6.10946 1408 ft 4 kts 51°
2026-05-07 14:24 46.23407 6.10920 1408 ft 2 kts 45°
2026-05-07 14:24 46.23406 6.10919 1408 ft 0 kts 45°
2026-05-07 14:28 46.23415 6.10932 1408 ft 4 kts 45°
2026-05-07 14:29 46.23437 6.10964 1408 ft 4 kts 45°
2026-05-07 14:29 46.23459 6.10996 1407 ft 4 kts 45°
2026-05-07 14:29 46.23481 6.11029 1408 ft 5 kts 45°
2026-05-07 14:29 46.23509 6.11070 1408 ft 6 kts 45°
2026-05-07 14:30 46.23537 6.11112 1407 ft 6 kts 45°
2026-05-07 14:30 46.23568 6.11150 1405 ft 6 kts 28°
2026-05-07 14:30 46.23607 6.11144 1402 ft 6 kts 335°
2026-05-07 14:30 46.23640 6.11107 1407 ft 6 kts 318°
2026-05-07 14:31 46.23678 6.11079 1402 ft 7 kts 355°
2026-05-07 14:31 46.23734 6.11125 1384 ft 13 kts 42°
2026-05-07 14:31 46.23806 6.11228 1381 ft 15 kts 45°
2026-05-07 14:31 46.23881 6.11339 1377 ft 15 kts 45°
2026-05-07 14:32 46.23957 6.11450 1374 ft 15 kts 45°
2026-05-07 14:32 46.24032 6.11561 1371 ft 15 kts 45°
2026-05-07 14:32 46.24107 6.11671 1368 ft 15 kts 45°
2026-05-07 14:32 46.24182 6.11782 1369 ft 15 kts 45°
2026-05-07 14:33 46.24259 6.11894 1367 ft 16 kts 45°
2026-05-07 14:33 46.24335 6.12006 1369 ft 16 kts 45°
2026-05-07 14:33 46.24412 6.12118 1370 ft 16 kts 45°
2026-05-07 14:33 46.24488 6.12230 1373 ft 16 kts 45°
2026-05-07 14:34 46.24565 6.12343 1372 ft 16 kts 45°
2026-05-07 14:34 46.24642 6.12456 1369 ft 15 kts 45°
2026-05-07 14:34 46.24709 6.12555 1367 ft 13 kts 45°
2026-05-07 14:34 46.24757 6.12624 1366 ft 9 kts 41°
2026-05-07 14:35 46.24807 6.12667 1367 ft 8 kts 23°
2026-05-07 14:35 46.24856 6.12697 1369 ft 8 kts 31°
2026-05-07 14:35 46.24889 6.12757 1371 ft 8 kts 61°
2026-05-07 14:35 46.24918 6.12822 1370 ft 7 kts 46°
2026-05-07 14:36 46.24956 6.12846 1371 ft 5 kts
2026-05-07 14:36 46.24973 6.12841 1371 ft 0 kts 343°
2026-05-07 14:37 46.24979 6.12837 1371 ft 3 kts 333°
2026-05-07 14:37 46.24997 6.12782 1370 ft 4 kts 276°
2026-05-07 14:37 46.25000 6.12741 1372 ft 4 kts 276°
2026-05-07 14:38 46.25003 6.12700 1374 ft 4 kts 276°
2026-05-07 14:38 46.25001 6.12659 1375 ft 4 kts 255°
2026-05-07 14:38 46.24990 6.12636 1376 ft 1 kts 227°
2026-05-07 14:38 46.24989 6.12635 1376 ft 0 kts 226°
2026-05-07 14:39 46.24978 6.12618 1374 ft 12 kts 226°
2026-05-07 14:39 46.24761 6.12298 1373 ft 81 kts 225°
2026-05-07 14:39 46.24209 6.11488 1375 ft 144 kts 225°
2026-05-07 14:40 46.23372 6.10281 1410 ft 193 kts 222°
2026-05-07 14:40 46.22369 6.08892 1727 ft 208 kts 224°
2026-05-07 14:40 46.21334 6.07387 2216 ft 213 kts 226°
2026-05-07 14:40 46.20309 6.05830 2864 ft 215 kts 227°
2026-05-07 14:41 46.19277 6.04277 3553 ft 219 kts 227°
2026-05-07 14:41 46.18177 6.02656 3992 ft 234 kts 227°
2026-05-07 14:41 46.17007 6.00923 4333 ft 253 kts 226°
2026-05-07 14:41 46.15742 5.99065 4850 ft 265 kts 226°
2026-05-07 14:42 46.14448 5.97129 5509 ft 271 kts 227°
2026-05-07 14:42 46.13127 5.95147 6195 ft 277 kts 226°
2026-05-07 14:42 46.11787 5.93151 6986 ft 277 kts 225°
2026-05-07 14:42 46.10345 5.91384 7701 ft 275 kts 205°
2026-05-07 14:43 46.08466 5.90854 8185 ft 281 kts 172°
2026-05-07 14:43 46.06682 5.91842 9148 ft 275 kts 146°
2026-05-07 14:43 46.05333 5.93757 9930 ft 280 kts 125°
2026-05-07 14:43 46.04511 5.96330 10432 ft 293 kts 104°
2026-05-07 14:44 46.04315 5.99357 10600 ft 316 kts 91°
2026-05-07 14:44 46.04340 6.02642 10777 ft 339 kts 90°
2026-05-07 14:44 46.04359 6.06152 10964 ft 363 kts 91°
2026-05-07 14:44 46.04265 6.09838 11255 ft 374 kts 101°
2026-05-07 14:45 46.03293 6.13321 11719 ft 381 kts 127°
2026-05-07 14:45 46.01437 6.16026 12524 ft 379 kts 145°
2026-05-07 14:45 45.99270 6.18247 13275 ft 386 kts 146°
2026-05-07 14:45 45.97107 6.20478 14073 ft 391 kts 146°
2026-05-07 14:46 45.94895 6.22795 14830 ft 396 kts 146°
2026-05-07 14:46 45.92659 6.25151 15609 ft 402 kts 146°
2026-05-07 14:46 45.90394 6.27541 16364 ft 407 kts 146°